Tanger, Morocco

2:28 PM WEST on October 20, 2017 (GMT +0100)
Tanger

Weather History for GMTT - December, 2013

Change the Weather History Date:

Saturday, December 14, 2013

  Actual Average Record
Temperature  
Mean Temperature 58 °F -  
Max Temperature 67 °F 61 °F 72 °F (2015)
Min Temperature 49 °F 46 °F 42 °F (2000)
Degree Days  
Heating Degree Days 7    
Growing Degree Days 8 (Base 50)    
Moisture  
Dew Point 51 °F    
Average Humidity 76    
Maximum Humidity 94    
Minimum Humidity 52    
Precipitation  
Precipitation 0.00 in 0.15 in - ()
Sea Level Pressure  
Sea Level Pressure 30.34 in    
Wind  
Wind Speed 8 mph ()    
Max Wind Speed 25 mph    
Max Gust Speed 33 mph    
Visibility 4.7 miles    
Events      
Averages and records for this station are not official NWS values.
T = Trace of Precipitation, MM = Missing Value Source: Averaged Metar Reports

Daily Weather History Graph

Daily Weather History Graph

Search for Another Location

Airport or City:

Trip Planner

Search our weather history database for the weather conditions in past years. The results will help you decide how hot, cold, wet, or windy it might be!

Date:

Astronomy

Dec. 14, 2013 Rise Set
Actual Time 7:25 AM WET 5:11 PM WET
Civil Twilight 6:57 AM WET 5:39 PM WET
Nautical Twilight 6:25 AM WET 6:11 PM WET
Astronomical Twilight 5:53 AM WET 6:42 PM WET
Moon 3:20 PM WET (12/14) 4:36 AM WET (12/14)
Length of Visible Light 10h 42m
Length of Day
9h 45m
Waxing Gibbous, 92% of the Moon is Illuminated
Dec 14
Waxing Gibbous
Dec 17
Full
Dec 25
Last Quarter
Jan 1
New
Jan 8
First Quarter

Hourly Weather History & Observations

Time (WET) Temp. Dew Point Humidity Pressure Visibility Wind Dir Wind Speed Gust Speed Precip Events Conditions
12:00 AM 56 °F 53 °F 86% 30.35 in 3 mi ESE 4.6 mph - -   Mostly Cloudy
12:00 AM 57.2 °F 53.6 °F 88% 30.33 in 3.1 mi ESE 4.6 mph - N/A   Mostly Cloudy
12:30 AM 57.2 °F 53.6 °F 88% 30.33 in 3.1 mi Calm Calm - N/A   Mostly Cloudy
1:00 AM 55.4 °F 53.6 °F 94% 30.33 in 3.1 mi ESE 5.8 mph - N/A   Mostly Cloudy
1:30 AM 55.4 °F 51.8 °F 88% 30.30 in 3.1 mi ESE 3.5 mph - N/A   Mostly Cloudy
2:00 AM 53.6 °F 50.0 °F 88% 30.30 in 3.1 mi ESE 5.8 mph - N/A   Mostly Cloudy
2:30 AM 53.6 °F 50.0 °F 88% 30.30 in 6.2 mi ESE 3.5 mph - N/A   Unknown
3:00 AM 53 °F 50 °F 84% 30.32 in - East 5.8 mph - -  
3:00 AM 51.8 °F 50.0 °F 94% 30.30 in - East 4.6 mph - N/A   Unknown
3:30 AM 53.6 °F 50.0 °F 88% 30.30 in - ENE 3.5 mph - N/A   Unknown
4:00 AM 50.0 °F 48.2 °F 94% 30.30 in - East 3.5 mph - N/A   Unknown
4:30 AM 50.0 °F 46.4 °F 87% 30.30 in - Calm Calm - N/A   Unknown
5:00 AM 51.8 °F 50.0 °F 94% 30.30 in - NE 3.5 mph - N/A   Unknown
5:30 AM 51.8 °F 50.0 °F 94% 30.30 in - SE 5.8 mph - N/A   Unknown
6:00 AM 52 °F 50 °F 89% 30.32 in 3 mi Calm Calm - -   Mostly Cloudy
6:00 AM 51.8 °F 50.0 °F 94% 30.30 in 3.1 mi Calm Calm - N/A   Mostly Cloudy
7:00 AM 50.0 °F 48.2 °F 94% 30.30 in 3.7 mi East 3.5 mph - N/A   Scattered Clouds
7:30 AM 50.0 °F 48.2 °F 94% 30.33 in 3.7 mi ENE 3.5 mph - N/A   Scattered Clouds
8:00 AM 50.0 °F 48.2 °F 94% 30.33 in 3.1 mi Calm Calm - N/A   Scattered Clouds
8:30 AM 51.8 °F 50.0 °F 94% 30.36 in 3.1 mi East 3.5 mph - N/A   Scattered Clouds
9:00 AM 55 °F 53 °F 92% 30.38 in 3 mi SE 2.3 mph - -   Partly Cloudy
9:00 AM 55.4 °F 53.6 °F 94% 30.36 in 3.1 mi SE 2.3 mph - N/A   Scattered Clouds
9:30 AM 59.0 °F 57.2 °F 94% 30.36 in 3.1 mi Calm Calm - N/A   Scattered Clouds
10:30 AM 60.8 °F 57.2 °F 88% 30.39 in 3.1 mi Calm Calm - N/A   Scattered Clouds
11:00 AM 64.4 °F 51.8 °F 64% 30.39 in 4.3 mi East 8.1 mph - N/A   Scattered Clouds
11:30 AM 64.4 °F 53.6 °F 68% 30.36 in 6.2 mi ENE 11.5 mph - N/A   Scattered Clouds
12:00 PM 63 °F 54 °F 63% 30.38 in 5 mi East 11.5 mph - -   Mostly Cloudy
12:00 PM 62.6 °F 53.6 °F 72% 30.36 in 5.0 mi East 11.5 mph - N/A   Mostly Cloudy
12:30 PM 66.2 °F 53.6 °F 64% 30.36 in 5.0 mi East 15.0 mph - N/A   Scattered Clouds
1:00 PM 64.4 °F 55.4 °F 73% 30.33 in 5.0 mi East 17.3 mph - N/A   Scattered Clouds
1:30 PM 64.4 °F 55.4 °F 73% 30.33 in 5.0 mi ENE 16.1 mph - N/A   Scattered Clouds
2:00 PM 66.2 °F 55.4 °F 68% 30.33 in 5.0 mi ENE 13.8 mph - N/A   Scattered Clouds
2:30 PM 66.2 °F 51.8 °F 60% 30.30 in 5.0 mi ENE 13.8 mph - N/A   Scattered Clouds
3:00 PM 65 °F 52 °F 52% 30.33 in 5 mi East 17.3 mph - -   Partly Cloudy
3:00 PM 66.2 °F 51.8 °F 60% 30.33 in 5.0 mi East 17.3 mph - N/A   Scattered Clouds
3:30 PM 66.2 °F 51.8 °F 60% 30.33 in 5.0 mi East 17.3 mph - N/A   Scattered Clouds
4:00 PM 64.4 °F 51.8 °F 64% 30.33 in 5.0 mi East 18.4 mph - N/A   Scattered Clouds
4:30 PM 64.4 °F 51.8 °F 64% 30.33 in 5.0 mi East 20.7 mph - N/A   Scattered Clouds
5:00 PM 62.6 °F 51.8 °F 68% 30.33 in 5.0 mi East 16.1 mph 27.6 mph N/A   Scattered Clouds
5:30 PM 60.8 °F 51.8 °F 72% 30.33 in 6.2 mi East 19.6 mph - N/A   Scattered Clouds
6:00 PM 61 °F 51 °F 61% 30.36 in 6 mi East 20.7 mph - -   Partly Cloudy
6:00 PM 60.8 °F 51.8 °F 72% 30.36 in 6.2 mi East 20.7 mph - N/A   Scattered Clouds
6:30 PM 60.8 °F 48.2 °F 63% 30.36 in 6.2 mi East 25.3 mph - N/A   Scattered Clouds
7:00 PM 60.8 °F 48.2 °F 63% 30.36 in 6.2 mi East 20.7 mph 33.4 mph N/A   Scattered Clouds
7:30 PM 60.8 °F 50.0 °F 68% 30.36 in 6.2 mi East 19.6 mph - N/A   Scattered Clouds
8:00 PM 60.8 °F 48.2 °F 63% 30.36 in 6.2 mi East 20.7 mph - N/A   Scattered Clouds
8:30 PM 59.0 °F 48.2 °F 67% 30.36 in 6.2 mi East 20.7 mph - N/A   Scattered Clouds
9:00 PM 60 °F 48 °F 55% 30.39 in 6 mi East 24.2 mph - -   Partly Cloudy
9:00 PM 60.8 °F 48.2 °F 63% 30.39 in 6.2 mi East 24.2 mph - N/A   Scattered Clouds
9:30 PM 59.0 °F 48.2 °F 67% 30.39 in 5.0 mi East 21.9 mph 33.4 mph N/A   Scattered Clouds
10:00 PM 59.0 °F 46.4 °F 63% 30.39 in 5.0 mi East 19.6 mph - N/A   Scattered Clouds
10:30 PM 59.0 °F 48.2 °F 67% 30.39 in 5.0 mi East 19.6 mph - N/A   Scattered Clouds
11:00 PM 59.0 °F 46.4 °F 63% 30.39 in 5.0 mi East 20.7 mph - N/A   Scattered Clouds
11:30 PM 59.0 °F 46.4 °F 63% 30.39 in 5.0 mi ESE 17.3 mph - N/A   Scattered Clouds